CAPE
0 0 0 0 0 0 0 0 0 0 0 0 0 168 141 62 257 338 191 137 71 84 68 11 6 5 102 94 102 174 319 28 371 120 150 393 267 435 816 721 1087 979 841 765
0 0 0 0 0 0 0 0 0 0 0 0 0 51 234 62 97 87 57 80 108 97 118 21 1 0 51 48 20 0 117 16 145 54 12 271 363 365 581 729 1035 1050 862 804
0 0 0 0 0 0 0 0 0 0 0 0 19 192 315 137 4 0 0 45 118 105 94 126 0 0 24 40 20 0 63 32 0 52 0 156 339 281 554 886 1025 1127 1094 870
0 0 0 0 0 0 0 0 0 0 0 0 0 0 250 220 61 48 12 42 130 183 150 169 4 0 12 43 24 40 82 167 133 15 0 82 411 94 438 502 618 1146 1022 989
0 0 0 0 0 0 0 0 0 0 0 0 0 0 0 55 41 0 17 123 109 220 202 205 66 0 0 0 35 70 39 191 233 4 34 17 156 202 69 522 672 796 1064 1002
0 0 0 0 0 0 0 0 0 0 0 0 0 0 0 10 67 16 0 281 221 229 226 171 156 8 0 0 16 67 34 83 269 129 0 0 60 213 131 367 730 822 1011 1057
0 0 0 0 0 0 0 0 0 0 0 0 0 0 0 0 22 65 32 406 209 281 177 186 185 99 0 0 0 128 84 42 123 236 32 0 13 58 214 472 669 622 658 1097
0 0 0 0 0 0 0 0 0 0 0 0 0 0 0 0 0 45 81 256 121 38 79 167 226 209 17 0 0 93 152 68 56 160 185 0 0 9 117 452 700 742 546 770
0 0 0 0 0 0 0 0 0 0 0 0 0 0 0 0 0 7 86 66 71 0 2 128 252 245 78 21 0 9 160 99 82 57 0 85 0 0 9 361 893 771 593 568
0 0 0 0 0 0 0 0 0 0 0 0 0 0 0 0 0 4 148 113 46 35 5 104 327 296 196 69 13 6 33 136 110 63 17 0 19 119 0 36 540 920 640 509
0 0 0 0 0 0 0 0 0 0 0 0 0 0 0 0 0 0 0 0 7 30 54 273 421 357 228 158 96 31 1 72 225 164 34 0 0 147 159 3 96 795 815 568
0 0 0 0 0 0 0 0 0 0 0 0 0 0 0 0 0 0 0 0 0 53 70 301 483 392 282 265 211 161 103 18 168 271 183 0 0 1 254 154 16 164 936 775
0 0 0 0 0 0 0 0 0 0 0 0 0 0 0 0 0 0 0 74 22 50 196 484 537 439 364 341 272 231 262 236 81 289 294 221 1 0 37 279 172 45 463 870
0 0 0 0 0 0 0 0 0 0 0 0 0 0 0 0 0 0 0 0 231 87 128 122 108 84 64 255 240 270 235 428 348 286 318 359 242 3 0 94 209 317 137 524
0 0 0 0 0 0 0 0 0 0 0 0 0 0 0 0 0 0 0 0 0 4 4 44 31 39 3 0 0 173 393 404 595 532 410 408 488 336 0 0 89 22 294 225
0 0 0 0 0 0 0 0 0 0 0 0 0 0 0 0 0 0 0 0 0 24 33 148 67 89 71 9 0 9 288 558 699 776 672 425 570 661 473 34 0 0 0 229
0 0 0 0 0 0 0 0 0 0 0 0 0 0 0 0 0 0 0 0 0 0 0 0 0 0 5 71 10 155 167 235 862 941 891 929 585 733 740 743 254 106 13 0
0 0 0 0 0 0 0 0 0 0 0 0 0 0 0 0 0 0 0 0 0 0 0 0 0 150 203 107 64 21 77 215 583 791 1248 1183 1247 974 889 874 1007 729 504 166
0 0 0 0 0 0 0 0 9 5 5 0 0 0 0 0 0 0 0 0 2 0 0 0 57 0 5 28 290 424 214 173 110 653 998 1642 1524 1492 1291 1139 1113 1147 1076 722
0 0 0 0 0 0 0 0 0 0 0 0 0 0 0 0 0 0 0 0 0 0 0 0 1 0 0 0 0 52 307 139 225 492 636 1063 1805 1693 1646 1582 1434 1305 1224 1143
0 0 0 0 4 0 1 0 1 1 0 0 0 0 0 0 0 0 0 0 0 0 0 0 0 0 0 0 0 0 0 54 0 12 132 371 1228 1774 1736 1709 1678 1563 1434 1298
0 0 0 0 5 0 0 0 0 0 0 0 0 0 0 0 0 0 0 0 0 0 0 0 0 0 0 0 0 0 0 0 0 0 54 309 1515 1713 1869 1770 1754 1677 1574 1436
0 0 0 0 0 0 0 0 1 0 0 0 1 0 0 0 0 0 0 0 0 0 0 0 0 0 0 0 0 0 0 0 0 0 59 395 1635 1759 1793 1849 1837 1721 1673 1602
0 0 0 0 0 0 0 1 0 0 1 0 0 0 1 0 0 0 0 0 0 0 0 0 0 0 0 0 0 0 0 0 0 0 22 113 1412 1819 1710 1793 1826 1816 1696 1709
0 0 0 0 0 0 0 0 1 2 1 1 2 2 1 1 0 1 0 0 0 0 0 0 0 0 0 0 0 0 0 0 0 0 1 103 1606 2166 2102 1905 1903 1966 1882 1790
0 0 0 0 0 0 0 0 3 1 2 6 5 0 1 2 0 0 0 0 3 0 0 0 0 0 0 0 0 0 0 0 0 1 0 1 340 2252 2433 2166 2228 1424 1846 1789
CIN
0 0 0 0 0 0 0 0 0 0 0 0 0 -92 -154 -251 -157 -138 -107 -99 -90 -43 -46 -24 -47 -92 -107 -107 -105 -78 -61 -36 -42 -58 -46 -34 -45 -48 -39 -37 -27 -31 -39 -41
0 0 0 0 0 0 0 0 0 0 0 0 0 -109 -229 -311 -280 -250 -215 -176 -198 -113 -51 -127 -28 0 -138 -118 -95 0 -86 -39 -66 -62 -28 -50 -50 -67 -40 -37 -22 -30 -39 -40
0 0 0 0 0 0 0 0 0 0 0 0 -81 -83 -83 -231 -249 -28 0 -289 -243 -202 -121 -109 0 0 -161 -161 -171 0 -137 -58 0 -77 0 -56 -59 -76 -42 -27 -25 -31 -29 -33
0 0 0 0 0 0 0 0 0 0 0 0 0 0 -23 -111 -221 -289 -312 -341 -292 -232 -173 -174 -113 0 -223 -208 -202 -169 -153 -129 -92 -24 0 -82 -50 -126 -64 -41 -31 -23 -29 -28
0 0 0 0 0 0 0 0 0 0 0 0 0 0 0 -133 -170 0 -333 -309 -312 -207 -190 -184 -272 0 0 0 -234 -176 -167 -144 -106 -6 -68 -64 -75 -84 -100 -35 -31 -33 -28 -30
0 0 0 0 0 0 0 0 0 0 0 0 0 0 0 -99 -173 -237 0 -244 -281 -234 -262 -220 -185 -355 0 0 -216 -207 -195 -176 -136 -112 0 0 -113 -81 -109 -72 -36 -30 -30 -36
0 0 0 0 0 0 0 0 0 0 0 0 0 0 0 0 -156 -150 -171 -205 -303 -252 -270 -275 -230 -327 0 0 0 -228 -232 -214 -181 -134 -97 0 -51 -134 -98 -70 -53 -51 -42 -30
0 0 0 0 0 0 0 0 0 0 0 0 0 0 0 0 0 -149 -186 -156 -221 -217 -236 -274 -263 -297 -412 0 0 -287 -262 -256 -244 -177 -149 0 0 -187 -133 -84 -57 -43 -57 -38
0 0 0 0 0 0 0 0 0 0 0 0 0 0 0 0 0 -105 -179 -256 -214 0 -38 -309 -268 -226 -368 -386 0 -338 -293 -287 -268 -256 0 -165 0 0 -205 -111 -64 -60 -57 -58
0 0 0 0 0 0 0 0 0 0 0 0 0 0 0 0 0 -82 -115 -175 -261 -263 -168 -362 -232 -202 -308 -337 -357 -381 -393 -319 -309 -285 -172 0 -173 -169 0 -196 -93 -66 -60 -68
0 0 0 0 0 0 0 0 0 0 0 0 0 0 0 0 0 0 0 0 -109 -271 -312 -277 -249 -264 -261 -301 -361 -382 -35 -356 -320 -313 -259 0 0 -160 -166 -113 -168 -58 -60 -57
0 0 0 0 0 0 0 0 0 0 0 0 0 0 0 0 0 0 0 0 0 -357 -325 -284 -230 -221 -222 -287 -362 -407 -363 -196 -355 -315 -287 0 0 -31 -136 -175 -246 -141 -43 -70
0 0 0 0 0 0 0 0 0 0 0 0 0 0 0 0 0 0 0 -374 -181 -367 -271 -206 -196 -217 -274 -307 -282 -371 -381 -355 -325 -317 -294 -253 -8 0 -212 -149 -158 -217 -88 -47
0 0 0 0 0 0 0 0 0 0 0 0 0 0 0 0 0 0 0 0 -259 -361 -345 -309 -304 -362 -315 -320 -367 -333 -391 -358 -318 -256 -291 -262 -231 -127 0 -217 -169 -125 -182 -99
0 0 0 0 0 0 0 0 0 0 0 0 0 0 0 0 0 0 0 0 0 -97 -100 -258 -299 -273 -301 0 0 -300 -289 -333 -311 -284 -269 -260 -227 -212 0 0 -227 -265 -147 -168
0 0 0 0 0 0 0 0 0 0 0 0 0 0 0 0 0 0 0 0 0 -271 -199 -128 -158 -133 -226 -158 0 -478 -337 -228 -296 -270 -259 -288 -220 -184 -201 -95 0 0 0 -181
0 0 0 0 0 0 0 0 0 0 0 0 0 0 0 0 0 0 0 0 0 0 0 0 0 0 -149 -267 -331 -296 -358 -286 -179 -185 -195 -206 -250 -188 -198 -192 -241 -278 -89 0
0 0 0 0 0 0 0 0 0 0 0 0 0 0 0 0 0 0 0 0 0 0 0 0 0 -51 -194 -388 -375 -313 -232 -211 -176 -171 -159 -169 -156 -158 -162 -165 -185 -178 -192 -265
0 0 0 0 0 0 0 0 -21 -32 -22 0 0 0 0 0 0 0 0 0 -131 -22 0 0 -105 0 -153 -188 -112 -73 -168 -200 -152 -141 -164 -137 -109 -84 -128 -146 -188 -164 -133 -158
0 0 0 0 0 0 0 0 -36 -12 0 0 0 0 0 0 0 0 0 0 0 -44 0 0 -124 0 0 0 0 -191 -157 -309 -263 -190 -248 -167 -69 -44 -96 -148 -168 -154 -128 -140
0 0 0 0 -2 -4 0 0 -13 -5 0 0 0 0 0 0 0 0 0 0 0 0 0 0 0 0 0 0 0 0 0 -327 0 -698 -447 -336 -140 -81 -95 -124 -135 -122 -102 -98
0 0 0 0 -2 0 0 0 0 0 0 0 0 0 0 0 0 0 0 0 0 0 0 0 0 0 0 0 0 0 0 0 0 0 -572 -421 -141 -109 -97 -102 -116 -104 -85 -72
0 0 0 0 0 0 0 0 -1 0 0 0 0 0 0 0 0 0 0 0 0 0 0 0 0 0 0 0 0 0 0 0 0 0 -579 -363 -147 -125 -114 -120 -97 -92 -71 -55
0 0 0 0 0 0 0 -1 0 0 0 0 0 0 0 0 0 0 0 0 0 0 0 0 0 0 0 0 0 0 0 0 0 0 -543 -442 -142 -117 -130 -130 -87 -86 -85 -61
0 0 0 0 0 0 0 -1 -1 -1 0 0 0 0 0 0 0 0 0 0 0 0 0 0 0 0 0 0 0 0 0 0 0 0 -108 -463 -118 -88 -93 -99 -101 -89 -103 -89
0 0 0 0 0 0 0 -1 -2 -2 -2 0 0 0 0 0 0 0 0 0 -5 0 0 0 0 0 0 0 0 0 0 0 0 0 0 -107 -361 -47 -51 -59 -65 -167 -103 -90
Wind_Speed
18 21 24 27 24 23 24 25 27 28 27 24 22 4 14 2 13 13 12 9 23 29 22 15 25 23 23 23 22 21 21 23 24 29 28 29 27 28 26 26 25 25 24 24
23 27 25 22 25 27 28 28 29 29 21 23 18 8 13 12 13 16 22 16 19 27 26 18 23 26 26 25 23 22 23 22 28 30 28 29 28 27 26 26 25 24 24 24
25 25 25 26 26 26 29 28 29 29 29 23 11 14 12 11 11 32 31 21 14 25 33 21 30 33 28 27 23 22 22 22 27 29 32 31 27 28 26 26 25 24 24 23
25 30 26 26 30 26 31 29 29 28 25 25 21 24 15 12 11 39 35 33 32 27 32 25 25 32 28 26 22 20 20 19 28 30 32 30 33 30 29 25 27 26 25 24
24 25 27 29 29 29 32 30 31 29 28 29 21 21 19 8 16 21 28 13 19 18 28 31 23 27 29 28 25 20 19 19 24 32 31 32 32 33 30 25 26 25 25 24
25 24 23 22 26 27 30 29 28 26 25 31 22 22 20 7 13 11 24 25 21 16 17 22 18 24 25 30 28 24 20 22 20 27 35 32 34 33 32 26 26 27 26 23
24 25 25 22 28 26 22 24 28 30 31 33 23 27 24 6 5 12 20 29 22 15 15 21 23 23 23 30 32 29 26 23 21 25 33 36 36 37 33 29 27 24 26 24
23 26 18 19 20 25 28 24 27 31 33 31 27 30 26 15 15 8 15 25 23 28 44 17 25 21 21 26 29 28 28 28 23 25 30 40 39 40 38 35 32 26 24 24
22 25 21 19 23 22 27 30 24 30 30 33 30 29 30 21 25 20 12 13 24 29 12 16 18 23 21 23 28 28 25 26 23 26 25 38 44 42 40 25 27 27 24 21
22 27 23 25 21 18 19 24 31 29 37 40 31 28 26 21 21 19 26 38 50 28 23 15 18 23 19 20 20 29 26 26 25 18 18 44 45 45 43 39 18 29 26 16
21 23 28 23 21 26 26 24 25 29 29 34 34 34 25 23 20 22 27 32 42 36 25 17 18 23 21 18 17 25 30 26 24 23 18 25 47 46 43 44 31 17 19 21
24 24 29 30 28 27 24 20 22 30 36 31 31 32 16 18 23 26 29 34 34 23 25 20 19 20 17 22 18 20 26 32 26 22 19 18 43 49 47 47 45 29 20 9
24 25 31 33 23 21 24 26 26 28 28 33 37 34 19 25 23 25 31 33 27 17 21 24 20 21 19 28 18 22 20 26 35 23 18 17 19 49 49 47 46 41 31 14
20 23 25 30 29 31 36 36 30 29 34 38 33 33 26 24 22 22 24 25 17 11 15 19 21 27 26 30 29 33 22 20 20 30 21 18 18 37 50 47 41 43 45 32
20 25 28 31 33 35 40 42 37 38 35 37 38 35 26 23 21 19 15 18 18 12 18 17 21 26 30 34 40 38 33 20 20 20 23 26 17 30 41 44 38 37 37 38
21 25 29 31 29 35 43 45 44 43 40 38 38 35 24 24 19 18 18 13 15 15 8 13 22 33 45 45 34 48 41 27 22 21 18 28 16 23 30 36 38 36 35 37
21 21 28 32 31 35 44 42 39 43 39 37 40 32 28 24 20 19 19 17 13 12 11 14 18 31 39 47 33 32 32 30 29 29 26 18 26 37 21 30 32 36 36 35
18 20 22 31 31 44 36 33 36 40 27 26 28 29 29 28 23 16 18 19 13 16 18 19 16 19 20 22 29 28 34 31 34 33 39 21 27 36 25 21 27 33 33 28
17 18 20 23 30 36 38 30 29 30 29 24 28 29 30 31 26 21 20 21 20 20 18 16 18 19 16 13 17 21 28 33 35 37 40 28 29 39 29 23 20 30 32 32
20 16 11 10 21 30 23 28 27 25 39 29 28 30 30 29 32 30 28 25 22 19 19 16 14 15 17 18 19 21 25 28 28 29 39 35 32 35 31 30 18 28 32 34
20 16 13 6 3 3 26 35 33 35 37 34 32 32 33 34 33 36 33 29 25 24 22 16 17 17 20 21 22 22 23 26 31 40 42 40 45 33 38 27 24 26 31 32
19 17 16 14 7 3 28 29 28 32 35 36 36 37 40 39 40 38 36 36 33 28 26 24 21 25 22 23 25 26 27 28 31 32 38 43 47 28 26 18 20 25 28 33
18 17 16 10 9 16 20 17 30 33 38 40 42 41 42 44 44 45 43 40 38 35 30 27 28 32 23 26 27 30 29 31 31 32 36 39 43 48 19 18 17 18 25 30
17 18 18 19 15 19 33 26 28 36 39 40 43 44 45 49 49 50 49 45 42 38 36 35 32 32 32 29 30 31 31 32 33 35 37 40 42 41 32 22 18 18 19 25
12 13 15 15 10 19 17 32 33 35 36 39 40 42 47 50 55 52 51 48 44 39 36 37 37 34 39 32 33 32 30 32 34 35 36 38 42 40 34 29 19 19 21 19
11 10 12 15 15 20 13 23 32 32 34 36 38 40 42 46 48 48 49 47 45 40 37 36 37 38 37 37 38 34 32 34 35 36 35 35 37 41 38 36 29 30 22 20
Wind_Direction
256 258 257 259 265 270 269 268 268 267 273 295 298 201 165 197 128 138 133 146 161 173 167 166 164 156 153 152 149 147 147 151 151 156 156 177 151 158 151 149 139 137 130 130
259 257 263 269 266 265 263 264 262 268 287 296 309 262 184 173 168 149 154 152 162 166 166 163 164 161 162 159 158 154 155 151 161 163 161 179 161 157 155 150 148 143 141 137
258 262 261 260 264 264 262 262 262 265 279 299 321 293 254 252 245 191 226 249 152 165 174 167 170 171 167 167 164 162 159 157 163 165 169 193 187 192 156 155 149 150 149 142
263 257 262 262 259 265 265 264 266 270 281 274 296 282 272 239 230 212 215 213 190 169 171 169 170 173 171 171 167 166 162 161 166 167 169 168 184 172 176 154 160 158 154 147
263 263 261 260 261 263 262 269 265 269 275 278 287 285 287 244 255 188 190 179 174 175 174 175 172 173 174 172 171 171 169 166 165 174 172 174 181 186 181 157 156 158 155 147
268 272 275 273 268 269 268 269 272 273 274 264 276 284 282 245 196 209 189 184 175 179 183 178 176 176 175 174 173 174 173 172 169 171 182 177 181 186 181 163 160 163 161 152
273 270 274 284 267 275 273 266 265 263 259 258 276 279 278 258 266 193 192 191 184 180 187 185 182 177 179 175 177 177 176 176 175 174 181 186 186 193 182 172 167 160 164 156
267 261 281 293 283 272 265 266 259 260 259 264 274 266 271 301 289 209 192 191 188 188 204 187 184 180 183 178 178 179 180 179 179 179 181 196 193 199 199 199 181 167 163 161
272 263 285 295 294 287 268 263 272 268 267 266 269 272 276 307 299 278 250 209 195 196 221 219 213 189 187 185 180 181 182 182 183 183 183 192 206 203 200 216 193 172 168 161
284 271 282 283 295 298 292 279 266 267 260 259 264 263 262 299 317 320 279 263 231 230 256 233 216 197 200 199 193 182 183 184 186 202 198 205 209 222 221 228 246 227 172 159
294 282 274 284 279 282 286 281 278 273 265 260 261 262 273 289 313 307 300 296 226 245 243 216 210 189 213 221 207 188 185 185 187 190 210 204 216 222 229 223 241 254 174 172
297 286 275 273 282 286 284 287 291 269 262 267 265 265 292 307 309 315 312 302 276 221 237 211 200 196 203 206 220 201 190 187 187 189 198 215 231 221 224 220 224 246 253 225
299 288 278 275 279 285 274 284 291 286 276 265 262 261 288 301 311 321 320 316 290 228 229 233 212 208 233 246 244 217 210 193 190 188 198 218 222 210 210 227 231 237 247 243
311 291 283 274 278 281 273 278 286 280 268 270 269 274 286 297 312 315 331 343 332 271 245 231 240 242 248 254 253 243 231 222 206 192 194 204 214 219 213 233 243 240 235 249
317 293 290 285 286 284 277 274 277 273 273 266 269 277 282 289 298 315 327 345 354 323 259 250 250 250 255 256 250 246 245 228 219 215 195 193 225 248 243 241 247 248 249 249
327 300 298 293 296 289 277 273 271 270 272 270 273 275 284 282 297 308 306 313 325 347 331 261 268 272 261 254 275 240 241 244 234 232 221 193 228 248 250 248 247 249 250 251
321 317 306 292 302 296 278 275 273 267 273 271 267 271 280 277 280 291 295 289 288 309 312 301 304 295 275 244 246 236 241 250 244 247 249 231 195 200 204 251 250 250 250 251
319 316 312 302 303 281 286 287 279 267 268 272 269 272 273 273 266 284 295 297 267 287 290 291 298 323 328 254 245 249 249 250 244 249 244 225 195 200 199 244 251 251 252 250
336 313 316 318 301 292 290 289 275 262 259 273 269 272 273 274 260 264 293 291 280 276 287 294 303 312 315 305 268 265 250 246 247 248 243 250 197 202 195 200 245 252 252 253
331 343 349 345 320 293 292 293 291 277 257 266 271 271 272 272 253 258 279 282 282 280 281 286 292 306 307 306 294 284 276 260 259 260 244 251 252 201 196 197 244 254 252 253
329 355 358 358 333 324 302 288 288 262 257 271 269 271 271 263 262 267 275 274 278 275 270 285 285 302 299 305 305 301 293 275 262 251 246 250 240 200 201 207 255 255 254 255
344 7 4 5 3 341 318 298 285 278 279 271 269 269 268 268 267 270 272 272 273 278 278 274 279 280 292 301 303 299 292 287 275 268 248 249 237 200 200 222 251 255 255 256
5 12 16 31 15 348 340 330 291 289 278 276 272 272 269 267 266 267 267 272 274 272 275 273 264 264 286 299 299 293 293 285 276 261 248 252 247 234 221 214 222 246 255 256
19 22 19 19 30 7 297 318 302 290 282 280 277 273 272 266 265 265 264 266 270 272 272 271 275 274 277 292 294 291 291 284 279 267 262 259 253 247 252 251 236 233 246 254
69 61 39 32 31 18 26 327 302 290 283 284 283 278 273 270 266 264 262 261 264 269 272 270 271 274 273 281 288 286 288 286 280 271 268 265 255 251 254 253 234 225 213 224
105 93 63 39 38 22 24 14 314 300 291 291 286 284 281 278 271 267 260 259 259 264 268 270 270 269 274 273 273 283 285 284 280 272 269 269 263 252 252 251 256 259 250 221